Weather History for KAYS - May, 2013

Change the Weather History Date:

Thursday, May 2, 2013

  Actual Average (KAMG) Record (KAMG)
Temperature  
Mean Temperature 66 °F 70 °F  
Max Temperature 71 °F 83 °F 97 °F (1990)
Min Temperature 62 °F 58 °F 43 °F (1963)
Degree Days  
Heating Degree Days 0 1  
Month to date heating degree days 2  
Since 1 July heating degree days 1655  
Cooling Degree Days 2 6  
Month to date cooling degree days 11  
Year to date cooling degree days 165  
Growing Degree Days 16 (Base 50)    
Moisture  
Dew Point 64 °F    
Average Humidity 93    
Maximum Humidity 100    
Minimum Humidity 83    
Precipitation  
Precipitation 0.00 in 0.06 in 1.38 in (1964)
Month to date precipitation 0.13  
Year to date precipitation 15.75  
Snow  
Snow 0.00 in 0.00 in 0.00 in ()
Month to date snowfall 0.0  
Since 1 July snowfall 0.1  
Snow Depth -    
Sea Level Pressure  
Sea Level Pressure 30.03 in    
Wind  
Wind Speed 9 mph (ENE)    
Max Wind Speed 17 mph    
Max Gust Speed 23 mph    
Visibility 7 miles    
Events      
T = Trace of Precipitation, MM = Missing Value Source: NWS Daily Summary

Daily Weather History Graph

Daily Weather History Graph

Search for Another Location

Airport or City:

Trip Planner

Search our weather history database for the weather conditions in past years. The results will help you decide how hot, cold, wet, or windy it might be!

Date:

Astronomy

May. 02, 2013 Rise Set
Actual Time 6:43 AM EDT 8:09 PM EDT
Civil Twilight 6:17 AM EDT 8:35 PM EDT
Nautical Twilight 5:47 AM EDT 9:06 PM EDT
Astronomical Twilight 5:14 AM EDT 9:38 PM EDT
Moon 2:01 AM EDT (5/2) 1:24 PM EDT (5/2)
Length of Visible Light 14h 17m
Length of Day
13h 26m
Waning Gibbous, 48% of the Moon is Illuminated
May 2
Waning Gibbous
May 9
New
May 18
First Quarter
May 25
Full
May 31
Last Quarter

Hourly Weather History & Observations

Time (EDT) Temp. Dew Point Humidity Pressure Visibility Wind Dir Wind Speed Gust Speed Precip Events Conditions
12:15 AM 64.4 °F 60.8 °F 88% 30.09 in 10.0 mi NE 6.9 mph - N/A   Mostly Cloudy
12:35 AM 64.4 °F 60.8 °F 88% 30.08 in 10.0 mi NE 4.6 mph - N/A   Mostly Cloudy
12:55 AM 64.4 °F 60.8 °F 88% 30.07 in 10.0 mi NE 6.9 mph - N/A   Overcast
1:15 AM 64.4 °F 60.8 °F 88% 30.07 in 10.0 mi NE 5.8 mph - N/A   Overcast
1:35 AM 64.4 °F 60.8 °F 88% 30.07 in 10.0 mi ENE 5.8 mph - N/A   Overcast
1:55 AM 64.4 °F 60.8 °F 88% 30.06 in 10.0 mi NE 5.8 mph - N/A   Overcast
2:15 AM 62.6 °F 62.6 °F 100% 30.05 in 7.0 mi NE 5.8 mph - N/A   Overcast
2:35 AM 62.6 °F 62.6 °F 100% 30.05 in 7.0 mi NE 8.1 mph - N/A   Overcast
2:55 AM 62.6 °F 62.6 °F 100% 30.05 in 7.0 mi NE 6.9 mph - N/A   Overcast
3:15 AM 62.6 °F 62.6 °F 100% 30.04 in 5.0 mi NE 8.1 mph - N/A   Overcast
3:35 AM 62.6 °F 62.6 °F 100% 30.03 in 7.0 mi NE 6.9 mph - N/A   Overcast
3:55 AM 62.6 °F 62.6 °F 100% 30.03 in 7.0 mi NE 9.2 mph - N/A   Overcast
4:15 AM 62.6 °F 62.6 °F 100% 30.03 in 10.0 mi NE 9.2 mph - N/A   Overcast
4:35 AM 64.4 °F 62.6 °F 94% 30.03 in 10.0 mi NE 9.2 mph - N/A   Overcast
4:55 AM 64.4 °F 62.6 °F 94% 30.02 in 7.0 mi NE 9.2 mph - N/A   Overcast
5:15 AM 64.4 °F 62.6 °F 94% 30.02 in 7.0 mi NE 11.5 mph - N/A   Overcast
5:35 AM 64.4 °F 62.6 °F 94% 30.02 in 7.0 mi NE 8.1 mph - N/A   Overcast
5:55 AM 64.4 °F 64.4 °F 100% 30.02 in 10.0 mi NE 10.4 mph - N/A   Overcast
6:15 AM 64.4 °F 64.4 °F 100% 30.02 in 10.0 mi NE 6.9 mph - N/A   Overcast
6:35 AM 64.4 °F 64.4 °F 100% 30.03 in 10.0 mi ENE 6.9 mph - N/A   Overcast
6:55 AM 64.4 °F 64.4 °F 100% 30.03 in 5.0 mi East 11.5 mph 18.4 mph N/A   Overcast
7:15 AM 66.2 °F 64.4 °F 94% 30.04 in 4.0 mi ENE 13.8 mph 19.6 mph N/A   Overcast
7:35 AM 66.2 °F 64.4 °F 94% 30.04 in 5.0 mi ENE 10.4 mph 16.1 mph N/A   Overcast
7:55 AM 66.2 °F 64.4 °F 94% 30.04 in 7.0 mi NE 10.4 mph - N/A   Overcast
8:15 AM 66.2 °F 64.4 °F 94% 30.04 in 7.0 mi ENE 9.2 mph - N/A   Overcast
8:35 AM 66.2 °F 64.4 °F 94% 30.05 in 7.0 mi NE 8.1 mph - N/A   Overcast
8:55 AM 66.2 °F 64.4 °F 94% 30.05 in 7.0 mi ENE 8.1 mph - N/A   Overcast
9:15 AM 66.2 °F 64.4 °F 94% 30.06 in 7.0 mi NE 8.1 mph - N/A   Overcast
9:35 AM 66.2 °F 66.2 °F 100% 30.05 in 7.0 mi NE 8.1 mph - N/A   Overcast
9:55 AM 66.2 °F 66.2 °F 100% 30.05 in 7.0 mi ENE 9.2 mph - N/A   Overcast
10:15 AM 68.0 °F 66.2 °F 94% 30.05 in 7.0 mi ENE 9.2 mph - N/A   Overcast
10:35 AM 69.8 °F 66.2 °F 88% 30.05 in 7.0 mi ENE 9.2 mph - N/A   Overcast
10:55 AM 68.0 °F 66.2 °F 94% 30.05 in 7.0 mi ENE 9.2 mph - N/A   Overcast
11:15 AM 68.0 °F 66.2 °F 94% 30.05 in 5.0 mi ENE 10.4 mph 16.1 mph N/A   Overcast
11:35 AM 68.0 °F 66.2 °F 94% 30.05 in 5.0 mi ENE 10.4 mph 18.4 mph N/A   Overcast
11:55 AM 68.0 °F 66.2 °F 94% 30.05 in 5.0 mi ENE 10.4 mph 17.3 mph N/A   Overcast
12:15 PM 69.8 °F 66.2 °F 88% 30.05 in 7.0 mi ENE 9.2 mph - N/A   Mostly Cloudy
12:35 PM 69.8 °F 66.2 °F 88% 30.04 in 5.0 mi East 8.1 mph - N/A   Overcast
12:55 PM 69.8 °F 66.2 °F 88% 30.04 in 7.0 mi East 9.2 mph - N/A   Overcast
1:15 PM 69.8 °F 66.2 °F 88% 30.04 in 5.0 mi East 8.1 mph - N/A   Overcast
1:35 PM 69.8 °F 66.2 °F 88% 30.05 in 5.0 mi East 9.2 mph - N/A   Overcast
1:55 PM 68.0 °F 66.2 °F 94% 30.04 in 3.0 mi ESE 5.8 mph - N/A   Overcast
2:15 PM 68.0 °F 66.2 °F 94% 30.05 in 3.0 mi East 9.2 mph - N/A   Overcast
2:35 PM 68.0 °F 66.2 °F 94% 30.03 in 5.0 mi East 5.8 mph - N/A   Overcast
2:55 PM 68.0 °F 66.2 °F 94% 30.03 in 4.0 mi East 5.8 mph - N/A   Overcast
3:15 PM 68.0 °F 66.2 °F 94% 30.02 in 3.0 mi East 4.6 mph - N/A   Overcast
3:35 PM 68.0 °F 66.2 °F 94% 30.02 in 5.0 mi ESE 4.6 mph - N/A   Overcast
3:55 PM 69.8 °F 66.2 °F 88% 30.01 in 7.0 mi East 4.6 mph - N/A   Overcast
4:15 PM 69.8 °F 66.2 °F 88% 30.00 in 7.0 mi ENE 6.9 mph - N/A   Overcast
4:35 PM 69.8 °F 66.2 °F 88% 30.00 in 10.0 mi East 17.3 mph 23.0 mph N/A   Mostly Cloudy
4:55 PM 69.8 °F 66.2 °F 88% 30.00 in 7.0 mi East 10.4 mph - N/A   Mostly Cloudy
5:15 PM 69.8 °F 66.2 °F 88% 29.99 in 7.0 mi East 9.2 mph - N/A   Mostly Cloudy
5:35 PM 69.8 °F 66.2 °F 88% 29.99 in 10.0 mi East 10.4 mph 17.3 mph N/A   Mostly Cloudy
5:55 PM 69.8 °F 66.2 °F 88% 29.99 in 10.0 mi East 15.0 mph - N/A   Mostly Cloudy
6:15 PM 71.6 °F 66.2 °F 83% 29.98 in 10.0 mi ENE 10.4 mph 17.3 mph N/A   Mostly Cloudy
6:35 PM 69.8 °F 64.4 °F 83% 29.98 in 10.0 mi ENE 13.8 mph 17.3 mph N/A   Scattered Clouds
6:55 PM 69.8 °F 64.4 °F 83% 29.98 in 10.0 mi ENE 12.7 mph - N/A   Scattered Clouds
7:15 PM 69.8 °F 64.4 °F 83% 29.99 in 7.0 mi East 11.5 mph 19.6 mph N/A   Mostly Cloudy
7:35 PM 69.8 °F 64.4 °F 83% 29.99 in 10.0 mi ENE 13.8 mph 20.7 mph N/A   Mostly Cloudy
7:55 PM 69.8 °F 64.4 °F 83% 29.99 in 10.0 mi ENE 10.4 mph - N/A   Overcast
8:15 PM 69.8 °F 64.4 °F 83% 29.99 in 10.0 mi ENE 11.5 mph 18.4 mph N/A   Overcast
8:35 PM 69.8 °F 64.4 °F 83% 29.99 in 10.0 mi NE 12.7 mph 18.4 mph N/A   Mostly Cloudy
8:55 PM 68.0 °F 64.4 °F 88% 30.00 in 10.0 mi ENE 12.7 mph 16.1 mph N/A   Overcast
9:15 PM 66.2 °F 64.4 °F 94% 30.00 in 7.0 mi ENE 11.5 mph 17.3 mph N/A   Overcast
9:35 PM 66.2 °F 64.4 °F 94% 30.00 in 7.0 mi ENE 13.8 mph 19.6 mph N/A   Overcast
9:55 PM 66.2 °F 64.4 °F 94% 30.00 in 7.0 mi ENE 10.4 mph 19.6 mph N/A   Overcast
10:15 PM 66.2 °F 64.4 °F 94% 30.00 in 7.0 mi ENE 10.4 mph 18.4 mph N/A   Overcast
10:35 PM 66.2 °F 64.4 °F 94% 30.00 in 7.0 mi ENE 16.1 mph 20.7 mph N/A   Overcast
10:55 PM 64.4 °F 64.4 °F 100% 30.00 in 7.0 mi ENE 12.7 mph 18.4 mph N/A   Overcast
11:15 PM 64.4 °F 64.4 °F 100% 30.00 in 5.0 mi ENE 15.0 mph 23.0 mph N/A   Overcast
11:35 PM 64.4 °F 64.4 °F 100% 29.99 in 7.0 mi ENE 16.1 mph 20.7 mph N/A   Overcast
11:55 PM 64.4 °F 64.4 °F 100% 29.99 in 7.0 mi ENE 12.7 mph 21.9 mph N/A   Overcast